Вернуться в каталог

STARLINK-2682

АктивенСвязьVLEO
NORAD 48440·PAYLOAD·🇺🇸 United States

Запущен May 9, 2021 с Cape Canaveral Space Force Station

Loading…

Ближайшие Пролёты (ближайшие 24 часа)

TLE

СвежийSource: CelesTrak SupGP

Эпоха: Sep 14, 2026, 21:37 UTC

1 48440C 21040N   26257.90118056 -.00007774  00000+0 -24998-3 0  2577
2 48440  53.1599  17.5758 0001273  80.0240 193.1883 15.31707681    17

Отслеживайте STARLINK-2682 в реальном времени с AllMySat

Download on the App Store